timestamp,surface_pressure_avg,surface_temp_avg,battery_voltage,lat,long
2020-12-17 00:09:01+00:00,353.2246,5.0,12.65,47.84626,-54.09684
2020-12-17 00:19:01+00:00,360.1964,5.0,12.65,47.84626,-54.09684
2020-12-17 00:29:01+00:00,360.9996,5.0,12.65,47.84626,-54.09684
2020-12-17 00:39:01+00:00,356.3796,5.0,12.65,47.84626,-54.09684
2020-12-17 00:49:01+00:00,362.7162,5.0,12.65,47.84626,-54.09684
2020-12-17 00:59:01+00:00,370.2145,4.99,12.65,47.84626,-54.09684
2020-12-17 01:09:01+00:00,368.483,4.99,12.65,47.84626,-54.09684
2020-12-17 01:19:01+00:00,366.8362,5.0,12.65,47.84626,-54.09684
2020-12-17 01:29:01+00:00,367.4014,4.98,12.65,47.84626,-54.09684
2020-12-17 01:39:01+00:00,369.9196,4.99,12.65,47.84626,-54.09684
2020-12-17 01:49:01+00:00,368.8246,4.99,12.65,47.84626,-54.09684
2020-12-17 01:59:01+00:00,364.3079,4.95,12.65,47.84626,-54.09684
2020-12-17 02:09:01+00:00,366.0029,4.93,12.65,47.84626,-54.09684
2020-12-17 02:19:01+00:00,368.2396,4.98,12.65,47.84626,-54.09684
2020-12-17 02:29:01+00:00,366.9129,4.99,12.65,47.84626,-54.09684
2020-12-17 02:39:01+00:00,362.9662,4.94,12.65,47.84626,-54.09684
2020-12-17 02:49:01+00:00,359.3513,4.94,12.65,47.84626,-54.09684
2020-12-17 02:59:01+00:00,356.4746,4.99,12.65,47.84626,-54.09684
2020-12-17 03:09:01+00:00,346.968,4.93,12.65,47.84626,-54.09684
2020-12-17 03:19:01+00:00,337.5813,4.94,12.65,47.84626,-54.09684
2020-12-17 03:29:01+00:00,334.3413,4.99,12.65,47.84626,-54.09684
2020-12-17 03:39:01+00:00,325.3796,4.97,12.65,47.84626,-54.09684
2020-12-17 03:49:01+00:00,315.4296,4.9,12.65,47.84626,-54.09684
2020-12-17 03:59:01+00:00,309.3597,4.94,12.65,47.84626,-54.09684
2020-12-17 04:09:01+00:00,301.7863,4.99,12.65,47.84626,-54.09684
2020-12-17 04:19:01+00:00,286.0513,4.94,12.65,47.84626,-54.09684
2020-12-17 04:29:01+00:00,273.7547,5.0,12.65,47.84626,-54.09684
2020-12-17 04:39:01+00:00,270.6515,5.0,12.65,47.84626,-54.09684
2020-12-17 04:49:01+00:00,266.3914,5.0,12.65,47.84626,-54.09684
2020-12-17 04:59:01+00:00,256.4564,5.07,12.65,47.84626,-54.09684
2020-12-17 05:09:01+00:00,249.4264,5.1,12.65,47.84626,-54.09684
2020-12-17 05:19:01+00:00,241.2715,5.1,12.65,47.84626,-54.09684
2020-12-17 05:29:01+00:00,229.2231,5.1,12.65,47.84626,-54.09684
2020-12-17 05:39:01+00:00,218.2564,5.1,12.65,47.84626,-54.09684
2020-12-17 05:49:01+00:00,213.6281,5.15,12.65,47.84626,-54.09684
2020-12-17 05:59:01+00:00,209.9181,5.17,12.65,47.84626,-54.09684
2020-12-17 06:09:01+00:00,199.0247,5.17,12.65,47.84626,-54.09684
2020-12-17 06:19:01+00:00,193.8531,5.12,12.65,47.84626,-54.09684
2020-12-17 06:29:01+00:00,196.8531,5.1,12.65,47.84626,-54.09684
2020-12-17 06:39:01+00:00,194.8881,5.1,12.65,47.84626,-54.09684
2020-12-17 06:49:01+00:00,190.6631,5.1,12.65,47.84626,-54.09684
2020-12-17 06:59:01+00:00,189.4648,5.1,12.65,47.84626,-54.09684
2020-12-17 07:09:01+00:00,190.6564,5.1,12.65,47.84626,-54.09684
2020-12-17 07:19:01+00:00,189.2048,5.12,12.65,47.84626,-54.09684
2020-12-17 07:29:01+00:00,190.9865,5.16,12.65,47.84626,-54.09684
2020-12-17 07:39:01+00:00,196.5648,5.12,12.65,47.84626,-54.09684
2020-12-17 07:49:01+00:00,198.8998,5.14,12.65,47.84626,-54.09684
2020-12-17 07:59:01+00:00,203.0715,5.17,12.65,47.84626,-54.09684
2020-12-17 08:09:01+00:00,209.7414,5.19,12.65,47.84626,-54.09684
2020-12-17 08:19:01+00:00,213.3848,5.19,12.65,47.84626,-54.09684
2020-12-17 08:29:01+00:00,221.4514,5.2,12.65,47.84626,-54.09684
2020-12-17 08:39:01+00:00,228.2581,5.04,12.65,47.84626,-54.09684
2020-12-17 08:49:01+00:00,231.5664,4.6,12.65,47.84626,-54.09684
2020-12-17 08:59:01+00:00,232.2897,4.4,12.65,47.84626,-54.09684
2020-12-17 09:09:01+00:00,233.5914,4.4,12.65,47.84626,-54.09684
2020-12-17 09:19:01+00:00,237.6797,4.4,12.65,47.84626,-54.09684
2020-12-17 09:29:01+00:00,244.4931,4.4,12.65,47.84626,-54.09684
2020-12-17 09:39:01+00:00,248.5731,4.41,12.65,47.84626,-54.09684
2020-12-17 09:49:01+00:00,252.7298,4.6,12.65,47.84626,-54.09684
2020-12-17 09:59:01+00:00,262.4915,4.66,12.65,47.84626,-54.09684
2020-12-17 10:09:01+00:00,272.8631,4.7,12.65,47.84626,-54.09684
2020-12-17 10:19:01+00:00,275.5414,4.68,12.65,47.84626,-54.09684
2020-12-17 10:29:01+00:00,279.9381,4.84,12.65,47.84626,-54.09684
2020-12-17 10:39:01+00:00,289.9597,4.9,12.65,47.84626,-54.09684
2020-12-17 10:49:01+00:00,299.068,4.9,12.65,47.84626,-54.09684
2020-12-17 10:59:01+00:00,302.0347,4.8,12.65,47.84626,-54.09684
2020-12-17 11:09:01+00:00,318.058,4.86,12.65,47.84626,-54.09684
2020-12-17 11:19:01+00:00,330.1096,4.9,12.65,47.84626,-54.09684
2020-12-17 11:29:01+00:00,334.8996,4.9,12.65,47.84626,-54.09684
2020-12-17 11:39:01+00:00,341.7247,4.8,12.65,47.84626,-54.09684
2020-12-17 11:49:01+00:00,356.1696,4.7,12.65,47.84626,-54.09684
2020-12-17 11:59:01+00:00,362.0363,4.7,12.65,47.84626,-54.09684
2020-12-17 12:09:01+00:00,364.8829,4.7,12.65,47.84626,-54.09684
2020-12-17 12:19:01+00:00,375.7629,4.84,12.65,47.84626,-54.09684
2020-12-17 12:29:01+00:00,385.2629,4.9,12.65,47.84626,-54.09684
2020-12-17 12:39:01+00:00,382.5379,4.8,12.65,47.84626,-54.09684
2020-12-17 12:49:01+00:00,384.6995,4.79,12.65,47.84626,-54.09684
2020-12-17 12:59:01+00:00,389.9762,4.8,12.65,47.84626,-54.09684
2020-12-17 13:09:01+00:00,386.8562,4.8,12.65,47.84626,-54.09684
2020-12-17 13:19:01+00:00,390.2062,4.8,12.73,47.84626,-54.09684
2020-12-17 13:29:01+00:00,396.0728,4.8,12.73,47.84626,-54.09684
2020-12-17 13:39:01+00:00,398.1663,4.83,12.73,47.84626,-54.09684
2020-12-17 13:49:01+00:00,400.7896,4.86,12.73,47.84626,-54.09684
2020-12-17 13:59:01+00:00,405.1462,4.85,12.73,47.84626,-54.09684
2020-12-17 14:09:01+00:00,405.788,4.86,12.73,47.84626,-54.09684
2020-12-17 14:19:01+00:00,397.5529,4.8,12.89,47.84626,-54.09684
2020-12-17 14:29:01+00:00,394.1029,4.8,12.89,47.84626,-54.09684
2020-12-17 14:39:01+00:00,398.2662,4.8,12.89,47.84626,-54.09684
2020-12-17 14:49:01+00:00,393.8395,4.8,12.89,47.84626,-54.09684
2020-12-17 14:59:01+00:00,387.9412,4.78,12.89,47.84626,-54.09684
2020-12-17 15:09:01+00:00,386.93800000000016,4.7,12.89,47.84626,-54.09684
2020-12-17 15:19:01+00:00,384.5696,4.73,12.97,47.84626,-54.09684
2020-12-17 15:29:01+00:00,376.2028,4.75,12.97,47.84626,-54.09684
2020-12-17 15:39:01+00:00,363.1964,4.7,12.97,47.84626,-54.09684
2020-12-17 15:49:01+00:00,355.3112,4.7,12.97,47.84626,-54.09684
2020-12-17 15:59:01+00:00,343.76800000000014,4.65,12.97,47.84626,-54.09684
2020-12-17 16:09:01+00:00,330.5013,4.3,12.97,47.84626,-54.09684
2020-12-17 16:19:01+00:00,326.3663,4.2,13.21,47.84626,-54.09684
2020-12-17 16:29:01+00:00,318.9263,4.2,13.21,47.84626,-54.09684
2020-12-17 16:39:01+00:00,308.1981,4.24,13.21,47.84626,-54.09684
2020-12-17 16:49:01+00:00,296.8848,4.28,13.21,47.84626,-54.09684
2020-12-17 16:59:01+00:00,292.4247,4.3,13.21,47.84626,-54.09684
2020-12-17 17:09:01+00:00,286.373,4.3,13.21,47.84626,-54.09684
2020-12-17 17:19:01+00:00,276.8597,4.3,13.21,47.84626,-54.09684
2020-12-17 17:29:01+00:00,262.4814,4.3,13.21,47.84626,-54.09684
2020-12-17 17:39:01+00:00,248.8614,4.3,13.21,47.84626,-54.09684
2020-12-17 17:49:01+00:00,243.6231,4.3,13.21,47.84626,-54.09684
2020-12-17 17:59:01+00:00,235.2881,4.3,13.21,47.84626,-54.09684
2020-12-17 18:09:01+00:00,218.2698,4.3,13.21,47.84626,-54.09684
2020-12-17 18:19:01+00:00,209.6964,4.3,13.05,47.84626,-54.09684
2020-12-17 18:29:01+00:00,212.5431,4.3,13.05,47.84626,-54.09684
2020-12-17 18:39:01+00:00,206.6264,4.31,13.05,47.84626,-54.09684
2020-12-17 18:49:01+00:00,197.6048,4.32,13.05,47.84626,-54.09684
2020-12-17 18:59:01+00:00,202.6998,4.34,13.05,47.84626,-54.09684
2020-12-17 19:09:01+00:00,206.7914,4.37,13.05,47.84626,-54.09684
2020-12-17 19:19:01+00:00,196.0915,4.38,12.89,47.84626,-54.09684
2020-12-17 19:29:01+00:00,193.3065,4.36,12.89,47.84626,-54.09684
2020-12-17 19:39:01+00:00,202.3198,4.37,12.89,47.84626,-54.09684
2020-12-17 19:49:01+00:00,203.7581,4.39,12.89,47.84626,-54.09684
2020-12-17 19:59:01+00:00,199.7881,4.4,12.89,47.84626,-54.09684
2020-12-17 20:09:01+00:00,197.3031,4.4,12.89,47.84626,-54.09684
2020-12-17 20:19:01+00:00,201.0015,4.4,12.73,47.84626,-54.09684
2020-12-17 20:29:01+00:00,207.2665,4.4,12.73,47.84626,-54.09684
2020-12-17 20:39:01+00:00,213.3331,4.4,12.73,47.84626,-54.09684
2020-12-17 20:49:01+00:00,215.9465,4.4,12.73,47.84626,-54.09684
2020-12-17 20:59:01+00:00,214.6864,4.4,12.73,47.84626,-54.09684
2020-12-17 21:09:01+00:00,215.6915,4.41,12.73,47.84626,-54.09684
2020-12-17 21:19:01+00:00,214.9298,4.43,12.65,47.84626,-54.09684
2020-12-17 21:29:01+00:00,214.9048,4.44,12.65,47.84626,-54.09684
2020-12-17 21:39:01+00:00,222.3465,4.41,12.65,47.84626,-54.09684
2020-12-17 21:49:01+00:00,232.3831,4.4,12.65,47.84626,-54.09684
2020-12-17 21:59:01+00:00,239.7298,4.4,12.65,47.84626,-54.09684
2020-12-17 22:09:01+00:00,243.5548,4.4,12.65,47.84626,-54.09684
2020-12-17 22:19:01+00:00,251.9081,4.4,12.65,47.84626,-54.09684
2020-12-17 22:29:01+00:00,259.1631,4.4,12.65,47.84626,-54.09684
2020-12-17 22:39:01+00:00,256.4331,4.3,12.65,47.84626,-54.09684
2020-12-17 22:49:01+00:00,255.3948,4.3,12.65,47.84626,-54.09684
2020-12-17 22:59:01+00:00,259.4414,4.3,12.65,47.84626,-54.09684
2020-12-17 23:09:01+00:00,263.9865,4.23,12.65,47.84626,-54.09684
2020-12-17 23:19:01+00:00,259.6481,4.2,12.65,47.84626,-54.09684
2020-12-17 23:29:01+00:00,265.1581,4.2,12.65,47.84626,-54.09684
2020-12-17 23:39:01+00:00,275.968,4.26,12.65,47.84626,-54.09684
2020-12-17 23:49:01+00:00,287.3614,4.35,12.65,47.84626,-54.09684
2020-12-17 23:59:01+00:00,289.7847,4.4,12.65,47.84626,-54.09684
